This is the latest recevied weather packets stored in our database for station/object IU1OLT-5. If no packets are shown the sender has not sent any weather packets the latest 10 day(s).
| Time | Temp. | Humidity | Pressure | Rain* | Wind** | Luminosity | Snow |
|---|---|---|---|---|---|---|---|
| 1778021884 | 13.33° C | 94% | 1011.6 hPa | 0 mm | - | 0 W/m² | - |
| 1778020984 | 13.89° C | 92% | 1012 hPa | 0 mm | - | 0 W/m² | - |
| 1778020084 | 13.89° C | 92% | 1012.1 hPa | 0 mm | - | 0 W/m² | - |
| 1778019184 | 14.44° C | 91% | 1012.5 hPa | 0 mm | - | 0 W/m² | - |
| 1778018284 | 13.89° C | 91% | 1012.1 hPa | 0 mm | - | 0 W/m² | - |
| 1778017383 | 13.89° C | 93% | 1012.5 hPa | 0 mm | - | 0 W/m² | - |
| 1778016483 | 13.89° C | 93% | 1012.5 hPa | 0 mm | - | 0 W/m² | - |
| 1778015583 | 13.89° C | 96% | 1012.4 hPa | 0 mm | - | 0 W/m² | - |
| 1778014683 | 13.89° C | 96% | 1012.7 hPa | 0 mm | - | 0 W/m² | - |
| 1778013782 | 13.89° C | 97% | 1012.8 hPa | 0 mm | - | 0 W/m² | - |
| 1778012882 | 14.44° C | 96% | 1012.9 hPa | 0 mm | - | 0 W/m² | - |
| 1778011982 | 15° C | 92% | 1013.2 hPa | 0 mm | - | 0 W/m² | - |
| 1778011081 | 15° C | 93% | 1013 hPa | 0 mm | - | 0 W/m² | - |
| 1778010181 | 15° C | 95% | 1013 hPa | 0 mm | - | 0 W/m² | - |
| 1778009280 | 15° C | 95% | 1012.8 hPa | 0 mm | - | 0 W/m² | - |
| 1778008380 | 15° C | 95% | 1012.6 hPa | 0 mm | - | 0 W/m² | - |
| 1778007480 | 15° C | 95% | 1012.5 hPa | 0 mm | - | 0 W/m² | - |
| 1778006580 | 15° C | 96% | 1012.5 hPa | 0 mm | - | 0 W/m² | - |
| 1778005680 | 15° C | 95% | 1012.7 hPa | 0 mm | - | 2 W/m² | - |
| 1778004779 | 15.56° C | 95% | 1012.6 hPa | 0 mm | - | 6 W/m² | - |
| 1778003879 | 15.56° C | 95% | 1012.9 hPa | 0 mm | - | 9 W/m² | - |
| 1778002979 | 15.56° C | 95% | 1012.4 hPa | 0 mm | - | 22 W/m² | - |
| 1778002079 | 16.11° C | 96% | 1012.4 hPa | 0 mm | - | 32 W/m² | - |
| 1778001179 | 16.11° C | 94% | 1012.3 hPa | 0 mm | - | 49 W/m² | - |
| 1778000279 | 16.67° C | 91% | 1012.4 hPa | 0 mm | - | 130 W/m² | - |
* Rain latest hour (hover to see other rain measurements)
** Current wind speed in m/s (hover to see current wind gust speed)